CW4713 Weather Reports


Display with metric or nautical units.
time (UTC)temp
F
wind
direction
speed
MPH
gust
MPH
rain 1hr
in
rain 24hr
in
rain mn
in
humidity
%
barometer
mb
20260901234304 55 304 2.0 6.0 0.00 0.00 0.00 62 1006.8
20260901233804 55 293 1.0 2.0 0.00 0.00 0.00 62 1006.8
20260901233304 55 280 1.0 7.0 0.00 0.00 0.00 62 1006.9
20260901232803 54 342 1.0 6.0 0.00 0.00 0.00 62 1006.9
20260901232306 54 9 3.0 8.0 0.00 0.00 0.00 62 1006.9
20260901231804 54 314 4.0 6.0 0.00 0.00 0.00 62 1006.9
20260901231304 54 342 2.0 6.0 0.00 0.00 0.00 62 1006.9
20260901230804 54 176 2.0 3.0 0.00 0.00 0.00 62 1006.9
20260901230304 54 301 1.0 3.0 0.00 0.00 0.00 62 1007.0
20260901225804 54 304 0.0 3.0 0.00 0.00 0.00 61 1007.0
20260901225306 54 320 3.0 7.0 0.00 0.00 0.00 61 1007.1
20260901224804 54 23 3.0 6.0 0.00 0.00 0.00 62 1007.1
20260901224304 53 9 3.0 7.0 0.00 0.00 0.00 62 1007.1
20260901223804 53 355 2.0 6.0 0.00 0.00 0.00 64 1007.2
20260901223304 53 327 2.0 7.0 0.00 0.00 0.00 65 1007.3
20260901222804 53 297 2.0 6.0 0.00 0.00 0.00 65 1007.4
20260901222306 52 201 1.0 2.0 0.00 0.00 0.00 65 1007.3
20260901221804 52 353 1.0 3.0 0.00 0.00 0.00 65 1007.3
20260901221304 52 227 0.0 5.0 0.00 0.00 0.00 66 1007.3
20260901220804 52 347 1.0 5.0 0.00 0.00 0.00 66 1007.4
20260901220304 52 275 0.0 5.0 0.00 0.00 0.00 66 1007.5
20260901215306 52 224 1.0 3.0 0.00 0.00 0.00 67 1007.5
20260901214804 52 239 1.0 3.0 0.00 0.00 0.00 67 1007.6
20260901214304 51 190 2.0 3.0 0.00 0.00 0.00 67 1007.6
20260901213804 51 343 2.0 5.0 0.00 0.00 0.00 67 1007.7
20260901213304 51 281 1.0 5.0 0.00 0.00 0.00 67 1007.7
20260901212804 51 208 1.0 3.0 0.00 0.00 0.00 68 1007.7
20260901212306 51 289 1.0 5.0 0.00 0.00 0.00 68 1007.8
20260901211804 51 14 1.0 3.0 0.00 0.00 0.00 68 1007.7
20260901211304 51 1 2.0 5.0 0.00 0.00 0.00 68 1007.7
20260901210804 51 333 1.0 3.0 0.00 0.00 0.00 68 1007.7
20260901210304 51 281 1.0 2.0 0.00 0.00 0.00 69 1007.7
20260901205804 51 338 2.0 7.0 0.00 0.00 0.00 69 1007.7
20260901205306 50 307 1.0 7.0 0.00 0.00 0.00 69 1007.8
20260901204804 50 12 3.0 6.0 0.00 0.00 0.00 69 1007.7
20260901204304 50 10 0.0 2.0 0.00 0.00 0.00 69 1007.7
20260901203804 50 312 1.0 3.0 0.00 0.01 0.00 70 1007.7
20260901203304 50 245 2.0 5.0 0.00 0.01 0.00 70 1007.7
20260901202804 50 281 1.0 3.0 0.00 0.01 0.00 70 1007.7
20260901202306 50 292 2.0 3.0 0.00 0.01 0.00 70 1007.8
20260901201804 50 149 2.0 3.0 0.00 0.01 0.00 71 1007.8
20260901201304 50 278 1.0 2.0 0.00 0.01 0.00 72 1007.9
20260901200803 49 255 2.0 5.0 0.00 0.02 0.00 72 1007.9
20260901200304 49 172 1.0 3.0 0.00 0.02 0.00 72 1007.9
20260901195803 49 206 1.0 3.0 0.00 0.02 0.00 73 1007.9
20260901195306 49 176 3.0 6.0 0.00 0.02 0.00 74 1007.8
20260901194803 48 251 0.0 5.0 0.00 0.02 0.00 75 1007.9
20260901194305 48 241 2.0 6.0 0.00 0.02 0.00 75 1007.9
20260901193804 48 253 1.0 2.0 0.00 0.02 0.00 76 1007.9
20260901193304 48 282 1.0 5.0 0.00 0.02 0.00 76 1007.9
20260901192804 48 282 2.0 3.0 0.00 0.03 0.00 77 1007.9
20260901192306 48 278 0.0 2.0 0.00 0.03 0.00 78 1007.9
20260901191804 48 284 0.0 3.0 0.00 0.03 0.00 79 1007.9
20260901191304 47 338 1.0 6.0 0.00 0.03 0.00 80 1007.9
20260901190804 47 210 3.0 5.0 0.00 0.03 0.00 80 1007.8
20260901190304 47 205 0.0 3.0 0.00 0.03 0.00 81 1007.8
20260901185804 47 176 2.0 5.0 0.00 0.03 0.00 81 1007.8
20260901185306 46 337 1.0 2.0 0.00 0.03 0.00 82 1007.9
20260901184804 46 192 0.0 1.0 0.00 0.03 0.00 83 1007.8
20260901184304 46 203 0.0 2.0 0.00 0.03 0.00 84 1007.7
20260901183805 45 133 1.0 5.0 0.00 0.03 0.00 84 1007.8
20260901183304 45 176 0.0 3.0 0.00 0.03 0.00 85 1007.9
20260901182805 45 263 0.0 1.0 0.00 0.03 0.00 86 1008.0
20260901182305 44 263 0.0 0.0 0.00 0.03 0.00 87 1008.0
20260901181804 44 263 0.0 1.0 0.00 0.03 0.00 88 1007.9
20260901181304 44 215 1.0 3.0 0.00 0.03 0.00 88 1008.0
20260901180805 43 353 1.0 2.0 0.00 0.03 0.00 89 1007.9
20260901180304 43 2 2.0 3.0 0.00 0.03 0.00 90 1007.9
20260901175804 42 19 1.0 3.0 0.00 0.03 0.00 92 1008.0
20260901175305 42 164 0.0 0.0 0.00 0.03 0.00 93 1008.0
20260901174804 41 164 0.0 0.0 0.00 0.03 0.00 94 1008.1
20260901174305 41 164 0.0 2.0 0.00 0.03 0.00 94 1008.1
20260901173804 40 202 2.0 3.0 0.00 0.03 0.00 94 1008.1
20260901173304 40 161 2.0 2.0 0.00 0.03 0.00 94 1008.1
20260901172804 39 174 0.0 0.0 0.00 0.03 0.00 94 1008.1
20260901172305 38 174 0.0 0.0 0.00 0.03 0.00 94 1008.1
20260901171804 37 174 0.0 0.0 0.00 0.03 0.00 94 1008.2
20260901171305 37 174 0.0 0.0 0.00 0.03 0.00 94 1008.2
20260901170804 36 174 0.0 0.0 0.00 0.03 0.00 94 1008.3
20260901170304 35 174 0.0 0.0 0.00 0.03 0.00 94 1008.3
20260901165804 35 174 0.0 0.0 0.00 0.03 0.00 94 1008.3
20260901165306 35 174 0.0 0.0 0.00 0.03 0.00 94 1008.2
20260901164804 34 174 0.0 0.0 0.00 0.03 0.00 94 1008.2
20260901164304 34 185 1.0 2.0 0.00 0.03 0.00 94 1008.3
20260901163804 34 182 2.0 2.0 0.00 0.03 0.00 94 1008.3
20260901163304 34 144 0.0 2.0 0.00 0.03 0.00 94 1008.2
20260901162804 34 137 0.0 0.0 0.00 0.03 0.00 94 1008.3
20260901162306 33 137 0.0 1.0 0.00 0.03 0.00 94 1008.3
20260901161804 33 165 0.0 0.0 0.00 0.03 0.00 94 1008.2
20260901161303 33 165 0.0 0.0 0.00 0.03 0.00 94 1008.1
20260901160804 32 165 0.0 0.0 0.00 0.03 0.00 94 1008.1
20260901160304 32 165 0.0 0.0 0.00 0.03 0.00 94 1008.1
20260901155804 32 165 0.0 0.0 0.00 0.03 0.00 94 1008.1
20260901155306 32 165 0.0 0.0 0.00 0.03 0.00 94 1008.1
20260901154804 32 165 0.0 0.0 0.00 0.03 0.00 93 1008.0
20260901154304 32 165 0.0 0.0 0.00 0.03 0.00 93 1008.1
20260901153804 32 165 0.0 0.0 0.00 0.03 0.00 94 1008.1
20260901153304 32 165 0.0 0.0 0.00 0.04 0.00 93 1008.0
20260901152804 32 165 0.0 0.0 0.00 0.04 0.00 93 1008.0
20260901152306 32 165 0.0 0.0 0.00 0.05 0.00 93 1008.0
20260901151804 32 165 0.0 0.0 0.00 0.06 0.00 93 1007.9
20260901151304 32 165 0.0 0.0 0.00 0.08 0.00 93 1007.8
20260901150805 32 165 0.0 0.0 0.00 0.10 0.00 93 1007.8
20260901150304 32 165 0.0 0.0 0.00 0.12 0.00 93 1007.7
20260901145804 32 165 0.0 0.0 0.00 0.14 0.00 93 1007.7
20260901145306 32 165 0.0 0.0 0.00 0.15 0.00 93 1007.7
20260901144804 32 165 0.0 0.0 0.00 0.16 0.00 93 1007.7
20260901144304 32 165 0.0 0.0 0.00 0.18 0.00 93 1007.8
20260901143803 32 165 0.0 0.0 0.00 0.19 0.00 93 1007.8
20260901143304 32 165 0.0 0.0 0.00 0.21 0.00 93 1007.8
20260901142804 32 165 0.0 0.0 0.00 0.23 0.00 92 1007.8
20260901142305 33 165 0.0 0.0 0.00 0.25 0.00 92 1007.7
20260901141804 33 165 0.0 0.0 0.00 0.27 0.00 92 1007.7
20260901141304 33 165 0.0 0.0 0.00 0.29 0.00 92 1007.6
20260901140804 33 165 1.0 2.0 0.00 0.30 0.00 92 1007.6
20260901140305 33 178 1.0 2.0 0.00 0.31 0.00 92 1007.6
20260901135804 33 169 0.0 0.0 0.00 0.32 0.00 92 1007.6
20260901135305 33 169 0.0 0.0 0.00 0.33 0.00 92 1007.6
20260901134803 33 169 0.0 0.0 0.00 0.34 0.00 92 1007.5
20260901134304 33 169 0.0 0.0 0.00 0.36 0.00 92 1007.6
20260901133804 33 166 1.0 1.0 0.00 0.39 0.00 92 1007.6
20260901133304 34 182 2.0 2.0 0.00 0.41 0.00 92 1007.6
20260901132804 34 16 0.0 0.0 0.00 0.43 0.00 92 1007.5
20260901132307 34 16 0.0 0.0 0.00 0.43 0.00 92 1007.4
20260901131804 34 16 0.0 0.0 0.00 0.43 0.00 92 1007.4
20260901131304 35 16 0.0 0.0 0.00 0.43 0.00 91 1007.4
20260901130804 35 16 0.0 0.0 0.00 0.43 0.00 91 1007.3
20260901130304 35 16 0.0 0.0 0.00 0.43 0.00 91 1007.3
20260901125804 35 16 0.0 0.0 0.00 0.43 0.00 91 1007.3
20260901125308 35 69 0.0 2.0 0.00 0.43 0.00 91 1007.2
20260901124804 35 4 0.0 0.0 0.00 0.43 0.00 91 1007.2
20260901124304 36 5 1.0 5.0 0.00 0.43 0.00 91 1007.1
20260901123804 36 126 0.0 2.0 0.00 0.43 0.00 91 1007.1
20260901123304 36 7 0.0 0.0 0.00 0.43 0.00 91 1007.0
20260901122804 36 7 0.0 1.0 0.00 0.43 0.00 91 1007.0
20260901122306 36 61 0.0 0.0 0.00 0.43 0.00 91 1007.0
20260901121804 36 61 1.0 2.0 0.00 0.43 0.00 91 1006.9
20260901121305 37 37 0.0 2.0 0.00 0.43 0.00 91 1006.9
20260901120805 37 24 0.0 2.0 0.00 0.43 0.00 91 1006.8
20260901120304 37 25 0.0 2.0 0.00 0.43 0.00 91 1006.7
20260901115804 37 23 0.0 0.0 0.00 0.43 0.00 91 1006.7
20260901115306 37 23 0.0 2.0 0.00 0.43 0.00 91 1006.6
20260901114805 37 42 0.0 1.0 0.00 0.43 0.00 91 1006.6
20260901114304 37 50 1.0 3.0 0.00 0.43 0.00 91 1006.6
20260901113805 37 48 1.0 3.0 0.00 0.43 0.00 92 1006.6
20260901113304 37 52 3.0 5.0 0.00 0.43 0.00 92 1006.5
20260901112805 37 47 2.0 5.0 0.00 0.43 0.00 92 1006.5
20260901111805 36 54 2.0 5.0 0.00 0.43 0.00 92 1006.6
20260901111305 36 34 2.0 3.0 0.00 0.43 0.00 92 1006.5
20260901110804 36 30 1.0 3.0 0.00 0.43 0.00 92 1006.5
20260901110304 36 46 1.0 2.0 0.00 0.43 0.00 92 1006.4
20260901105804 36 43 1.0 3.0 0.00 0.43 0.00 92 1006.5
20260901105305 36 54 0.0 1.0 0.00 0.43 0.00 91 1006.5
20260901104804 36 52 0.0 2.0 0.00 0.43 0.00 91 1006.6
20260901104305 36 40 0.0 0.0 0.00 0.43 0.00 91 1006.5
20260901103805 36 40 0.0 0.0 0.00 0.43 0.00 91 1006.6
20260901103304 36 40 0.0 0.0 0.00 0.43 0.00 91 1006.6
20260901102805 36 40 0.0 0.0 0.00 0.43 0.00 91 1006.5
20260901102306 36 40 0.0 0.0 0.00 0.43 0.00 91 1006.6
20260901101304 36 40 0.0 0.0 0.00 0.43 0.00 91 1006.5
20260901100804 36 40 0.0 0.0 0.00 0.43 0.00 91 1006.5
20260901100305 36 40 0.0 0.0 0.00 0.43 0.00 91 1006.3
20260901095804 36 40 0.0 0.0 0.00 0.43 0.00 91 1006.3
20260901095306 36 40 0.0 0.0 0.00 0.43 0.00 90 1006.5
20260901094804 36 40 0.0 0.0 0.00 0.43 0.00 90 1006.5
20260901094304 36 40 0.0 0.0 0.00 0.43 0.00 90 1006.5
20260901093804 37 40 0.0 0.0 0.00 0.43 0.00 90 1006.5
20260901093304 37 40 0.0 0.0 0.00 0.43 0.00 90 1006.5
20260901092804 37 40 0.0 0.0 0.00 0.43 0.00 90 1006.3
20260901092305 37 40 0.0 0.0 0.00 0.43 0.00 90 1006.2
20260901091804 37 40 0.0 0.0 0.00 0.43 0.00 90 1006.2
20260901090804 37 40 0.0 0.0 0.00 0.43 0.00 90 1006.2
20260901090304 37 40 0.0 0.0 0.00 0.43 0.00 89 1006.2
20260901085805 37 40 0.0 0.0 0.00 0.43 0.00 89 1006.1
20260901085306 38 40 0.0 0.0 0.00 0.43 0.00 89 1006.0
20260901084804 38 40 0.0 0.0 0.00 0.43 0.00 89 1006.0
20260901084304 38 40 0.0 0.0 0.00 0.43 0.00 89 1006.0
20260901083805 38 104 0.0 1.0 0.00 0.43 0.00 89 1006.0
20260901083304 38 109 0.0 0.0 0.00 0.43 0.00 88 1005.9
20260901082804 38 109 0.0 0.0 0.00 0.43 0.00 88 1005.8
20260901082306 38 109 0.0 0.0 0.00 0.43 0.00 88 1005.7
20260901081805 39 109 0.0 0.0 0.00 0.43 0.00 88 1005.7
20260901081304 39 109 0.0 0.0 0.00 0.43 0.00 88 1005.6
20260901080804 39 109 0.0 0.0 0.00 0.43 0.00 88 1005.6
20260901080305 39 109 0.0 0.0 0.00 0.43 0.00 88 1005.5
20260901075804 39 109 0.0 1.0 0.00 0.43 0.43 87 1005.6
20260901075307 40 152 0.0 0.0 0.00 0.43 0.43 87 1005.5
20260901074804 40 152 0.0 0.0 0.00 0.43 0.43 87 1005.6
20260901074304 40 152 0.0 5.0 0.00 0.43 0.43 87 1005.5
20260901073804 40 150 2.0 3.0 0.00 0.43 0.43 86 1005.6
20260901073305 40 96 0.0 0.0 0.00 0.43 0.43 86 1005.5
20260901072804 40 96 0.0 2.0 0.00 0.43 0.43 86 1005.5
20260901072309 41 352 1.0 5.0 0.00 0.43 0.43 86 1005.4
20260901071804 41 23 2.0 3.0 0.00 0.43 0.43 86 1005.5
20260901071305 41 147 2.0 2.0 0.00 0.43 0.43 85 1005.5
20260901070304 42 113 0.0 0.0 0.00 0.43 0.43 85 1005.6
20260901065804 42 113 0.0 0.0 0.00 0.43 0.43 84 1005.6
20260901065305 42 113 0.0 0.0 0.00 0.43 0.43 84 1005.4
20260901064804 43 113 0.0 0.0 0.00 0.43 0.43 84 1005.3
20260901064304 43 113 0.0 0.0 0.00 0.43 0.43 84 1005.2
20260901063804 43 113 0.0 0.0 0.00 0.43 0.43 84 1005.3
20260901063304 44 113 0.0 2.0 0.00 0.43 0.43 83 1005.4
20260901062804 44 191 1.0 2.0 0.00 0.43 0.43 83 1005.2
20260901062309 44 140 0.0 0.0 0.00 0.43 0.43 83 1005.1
20260901061804 44 140 0.0 0.0 0.00 0.43 0.43 82 1005.0
20260901061304 45 140 0.0 1.0 0.00 0.43 0.43 82 1004.9
20260901060804 45 184 2.0 3.0 0.00 0.43 0.43 81 1004.8
20260901055805 46 130 1.0 3.0 0.00 0.43 0.43 80 1004.8
20260901055306 46 175 2.0 2.0 0.00 0.43 0.43 79 1004.7
20260901054804 47 49 0.0 2.0 0.00 0.43 0.43 78 1004.6
20260901054304 47 38 0.0 0.0 0.00 0.43 0.43 78 1004.4
20260901053804 48 38 0.0 1.0 0.00 0.43 0.43 77 1004.2
20260901053304 49 155 0.0 0.0 0.00 0.43 0.43 76 1004.1
20260901052804 49 155 0.0 2.0 0.00 0.43 0.43 75 1004.1
20260901052307 49 198 1.0 2.0 0.00 0.43 0.43 74 1004.1
20260901051804 50 172 0.0 1.0 0.00 0.43 0.43 73 1004.1
20260901051304 50 169 1.0 2.0 0.00 0.43 0.43 72 1004.2
20260901050805 51 30 0.0 0.0 0.00 0.43 0.43 72 1004.1
20260901050304 51 30 0.0 0.0 0.00 0.43 0.43 71 1004.1
20260901045804 51 30 0.0 0.0 0.00 0.43 0.43 70 1004.1
20260901045306 52 30 0.0 0.0 0.00 0.43 0.43 70 1004.0
20260901044804 52 30 0.0 1.0 0.00 0.43 0.43 69 1003.9
20260901044304 53 17 1.0 3.0 0.00 0.43 0.43 68 1003.8
20260901043804 53 21 0.0 1.0 0.00 0.43 0.43 67 1003.7
20260901043304 53 16 0.0 1.0 0.00 0.43 0.43 66 1003.6
20260901042804 53 22 1.0 2.0 0.00 0.43 0.43 66 1003.6
20260901042306 54 14 2.0 3.0 0.00 0.43 0.43 65 1003.6
20260901041804 54 45 1.0 3.0 0.00 0.43 0.43 64 1003.5
20260901041303 54 358 3.0 7.0 0.00 0.43 0.43 64 1003.6
20260901040804 54 48 2.0 3.0 0.00 0.43 0.43 64 1003.6
20260901040304 54 54 1.0 2.0 0.00 0.43 0.43 63 1003.5
20260901035804 54 7 2.0 6.0 0.00 0.43 0.43 62 1003.5
20260901034804 55 348 3.0 9.0 0.00 0.43 0.43 63 1003.4
20260901034304 55 88 2.0 8.0 0.00 0.43 0.43 63 1003.4
20260901033803 55 17 4.0 7.0 0.00 0.43 0.43 62 1003.4
20260901033304 55 358 3.0 8.0 0.00 0.43 0.43 62 1003.3
20260901032804 55 0 6.0 9.0 0.00 0.43 0.43 61 1003.3
20260901032306 55 18 5.0 8.0 0.00 0.43 0.43 63 1003.2
20260901031804 55 14 2.0 5.0 0.00 0.43 0.43 64 1003.1
20260901031303 55 5 2.0 7.0 0.00 0.43 0.43 64 1003.0
20260901030804 55 356 4.0 8.0 0.00 0.43 0.43 64 1003.0
20260901030304 55 19 5.0 8.0 0.00 0.43 0.43 64 1002.9
20260901025804 55 10 4.0 7.0 0.00 0.43 0.43 64 1002.8
20260901025306 55 41 4.0 8.0 0.00 0.43 0.43 65 1002.8
20260901024804 55 345 2.0 7.0 0.00 0.43 0.43 64 1002.8
20260901024304 55 7 5.0 10.0 0.00 0.43 0.43 65 1002.7
20260901023804 55 353 5.0 10.0 0.00 0.43 0.43 66 1002.7
20260901023304 55 355 3.0 8.0 0.00 0.43 0.43 68 1002.6
20260901022804 55 347 4.0 7.0 0.00 0.43 0.43 68 1002.5
20260901022306 54 328 2.0 6.0 0.00 0.43 0.43 68 1002.5
20260901021804 54 332 3.0 7.0 0.00 0.43 0.43 69 1002.5
20260901021304 54 34 2.0 3.0 0.00 0.43 0.43 70 1002.5
20260901020804 54 342 2.0 6.0 0.00 0.43 0.43 70 1002.4
20260901020304 53 58 2.0 7.0 0.00 0.43 0.43 70 1002.4
20260901015804 53 12 1.0 2.0 0.00 0.43 0.43 70 1002.4
20260901015306 53 320 2.0 7.0 0.00 0.43 0.43 70 1002.4
20260901014804 53 47 1.0 5.0 0.00 0.43 0.43 71 1002.3
20260901014304 53 25 1.0 2.0 0.00 0.43 0.43 71 1002.4
20260901013804 53 118 3.0 5.0 0.00 0.43 0.43 71 1002.3
20260901013304 53 5 2.0 7.0 0.00 0.43 0.43 71 1002.3
20260901012804 53 27 2.0 6.0 0.00 0.43 0.43 71 1002.3
20260901012306 53 10 2.0 3.0 0.00 0.43 0.43 71 1002.3
20260901011804 53 72 3.0 8.0 0.00 0.43 0.43 71 1002.3
20260901011304 53 6 3.0 8.0 0.00 0.43 0.43 73 1002.2
20260901010803 52 2 4.0 7.0 0.00 0.43 0.43 74 1002.2
20260901010304 52 333 2.0 7.0 0.00 0.43 0.43 74 1002.1
20260901005804 52 82 3.0 6.0 0.00 0.43 0.43 73 1002.1
20260901005306 52 260 2.0 8.0 0.00 0.43 0.43 74 1002.1
20260901004804 52 31 4.0 8.0 0.00 0.43 0.43 75 1002.1
20260901004304 51 31 5.0 8.0 0.00 0.43 0.43 76 1002.2
20260901003804 51 9 5.0 10.0 0.00 0.43 0.43 76 1002.1
20260901003303 50 357 4.0 8.0 0.00 0.43 0.43 77 1002.1
20260901002804 50 43 3.0 7.0 0.00 0.43 0.43 77 1002.0
20260901002305 50 348 3.0 9.0 0.00 0.43 0.43 76 1002.1
20260901001804 50 27 4.0 8.0 0.00 0.43 0.43 77 1002.1
20260901001304 49 9 5.0 7.0 0.00 0.43 0.43 78 1002.1
20260901000804 49 36 6.0 9.0 0.00 0.43 0.43 78 1002.1
20260901000304 49 0 6.0 9.0 0.00 0.43 0.43 79 1002.1
20260831235804 48 19 5.0 9.0 0.00 0.43 0.43 80 1002.1
20260831235306 49 359 4.0 8.0 0.00 0.43 0.43 81 1002.1
20260831234804 49 357 4.0 7.0 0.00 0.43 0.43 81 1002.0